Regional Weather Roundup
Issued by NWS Upton, NY

Current Version | Previous Version | Graphics & Text | Print | Product List | Glossary Off
Versions: 1 2 3 4 5 6 7 8 9 10 11 12 13 14 15 16 17 18 19 20 21 22 23 24 25 26 27 28 29 30 31 32 33 34 35 36 37 38 39 40 41 42 43 44 45 46 47 48 49 50

000
ASUS41 KOKX 270605
RWROKX

REGIONAL WEATHER ROUNDUP
NATIONAL WEATHER SERVICE NEW YORK NY
200 AM EDT WED AUG 27 2014

NOTE: "FAIR" INDICATES FEW OR NO CLOUDS BELOW 12,000 FEET WITH NO
SIGNIFICANT WEATHER AND/OR OBSTRUCTIONS TO VISIBILITY.

NYZ071-072-176-178-NJZ106-104-270700-
NEW YORK CITY METRO AREA


CITY           SKY/WX    TMP DP  RH WIND       PRES   REMARKS
CENTRAL PARK   FAIR      72  57  59 W8        30.09F
LAGUARDIA APRT FAIR      73  57  57 SW6       30.05F
KENNEDY INTL   FAIR      70  63  78 W8        30.07F
NEWARK/LIBERTY FAIR      70  61  73 SW9       30.06F
BRNX BOT. GARD   N/A     72  57  60 W1        30.08R
TETERBORO      FAIR      69  59  70 CALM      30.05F
$$

NYZ177-179-078>081-270700-
LONG ISLAND NEW YORK

CITY           SKY/WX    TMP DP  RH WIND       PRES   REMARKS
FARMINGDALE    FAIR      68  62  81 W5        30.06F
ISLIP            N/A     68  61  78 CALM      30.05F
SHIRLEY        FAIR      66  61  84 CALM      30.06F
WESTHAMPTON    FAIR      59  56  89 CALM      30.07F
MONTAUK POINT    N/A     68  64  87 SW3       30.07F
$$

NYZ052-065-067-270700-
HUDSON VALLEY

CITY           SKY/WX    TMP DP  RH WIND       PRES   REMARKS
WHITE PLAINS   FAIR      67  60  78 CALM      30.06F
NEWBURGH       CLEAR     68  64  88 SW6       30.07F
MONTGOMERY     FAIR      64  61  90 SW5       30.06F
POUGHKEEPSIE   FAIR      66  62  87 CALM      30.04F
ALBANY         FAIR      70  63  78 S7        30.02S
$$

NJZ001-105-106-008-010-013-015-019>022-104-270700-
NEW JERSEY

CITY           SKY/WX    TMP DP  RH WIND       PRES   REMARKS
NEWARK/LIBERTY FAIR      70  61  73 SW9       30.06F
TETERBORO      FAIR      69  59  70 CALM      30.05F
CALDWELL       FAIR      68  60  75 VRB3      30.07F
MORRISTOWN     FAIR      66  63  88 CALM      30.06F
SOMERVILLE     FAIR      64  61  90 CALM      30.05F
LINDEN         FAIR      73  64  72 CALM      30.08F
SUSSEX         FAIR      63  60  90 CALM      30.07F FOG
ANDOVER          N/A     63  62  97 CALM      30.08F
TRENTON        FAIR      68  61  78 CALM      30.07F
MILLVILLE      FAIR      59  57  93 CALM      30.06F
ATLANTIC CITY  FAIR      58  57  97 CALM      30.06F
WRIGHTSTOWN    FAIR      65  64  96 W5        30.05F
TOMS RIVER     FAIR      61  59  94 CALM      30.07F
BELMAR         FAIR      64  59  82 W6        30.06F
$$

PAZ047>061-062-071-270700-
EASTERN PENNSYLVANIA

CITY           SKY/WX    TMP DP  RH WIND       PRES   REMARKS
PHILADELPHIA   FAIR      70  63  78 SW5       30.08F
ALLENTOWN      FAIR      67  62  84 CALM      30.07F
SCRANTON       FAIR      63  59  87 CALM      30.08F
$$

CTZ002-004>006-009-010-012-RIZ004-006-007-MAZ004-011-015-270700-
SOUTHERN NEW ENGLAND
 IN CT

CITY           SKY/WX    TMP DP  RH WIND       PRES   REMARKS
BRADLEY INTL   FAIR      68  63  84 S7        30.04F
HARTFORD       FAIR      68  64  87 S7        30.04F
DANBURY        FAIR      68  60  75 W6        30.08F
WTRBRY/OXFORD  FAIR      64  61  88 SW3       30.09F
BRIDGEPORT     FAIR      73  65  75 SW7       30.06F
MERIDEN        FAIR      63  61  93 CALM      30.06F
NEW HAVEN      FAIR      73  65  75 VRB3      30.06F
CHESTER        FAIR      66  63  88 W5        30.07F
GROTON         FAIR      65  63  93 SW3       30.05F
WILLIMANTIC    FAIR      63  60  90 CALM      30.06F

 IN RI

CITY           SKY/WX    TMP DP  RH WIND       PRES   REMARKS
PROVIDENCE     FAIR      65  59  81 SW3       30.06F
BLOCK ISLAND   FAIR      66  63  88 SW8       30.06F
WESTERLY       FAIR      64  61  90 CALM      30.06F

 IN MA

CITY           SKY/WX    TMP DP  RH WIND       PRES   REMARKS
BOSTON         FAIR      69  59  70 SW13      30.02F
WORCESTER      FAIR      65  60  84 SW10      30.05F
WESTFIELD      FAIR      66  63  90 S6        30.04F
PROVINCETOWN   FAIR      66  63  88 MISG      30.04F
NANTUCKET      FOG       63  62  97 SW5       30.06F VSB 1
$$

ANZ330-335-338-340-345-350-353-355-270700-
COASTAL MARINE OBSERVATIONS


STATION/POSITION TIME  SKY/WX   TEMP    WIND        PRES    VSBY  WAVE
                                AIR SEA DIR/SP/G                  HT/PER
                 (UTC)          (F)     (DEG/KT/KT) (MB)    (MI)  (FT/S)
NY HARB ENTRANCE NOT AVBL
4S FIRE IS       NOT AVBL
23SW MTP         0600                                 N/A           3/ 8
HUDSON CANYON    0600            71 72  330/  4/  6 1017.7          4/10
EXECUTION ROCKS  0600            74 74  240/  8/ 12   N/A
WESTERN LI SOUND 0600            74     240/ 10/ 10   N/A           1/ 2
CENTRAL LI SOUND 0500            72 74  250/ 10/ 12   N/A           1/ 3
EASTERN LI SOUND 0500            69 69  260/  4/  4   N/A
ROBBINS REEF     0600            71     260/  8/ 10   N/A
$$


>>>>>>>>>>>>>>>>>>>>>>>>>>>> KEY <<<<<<<<<<<<<<<<<<<<<<<<<<<
>                                                          <
>     SKY/WX - SKY CONDITION/PRESENT WEATHER               <
>     TMP    - TEMPERATURE IN FAHRENHEIT                   <
>     DP     - DEWPOINT IN FAHRENHEIT                      <
>     RH     - RELATIVE HUMIDITY IN PERCENT                <
>     WIND   - DIRECTION AND SPEED IN MPH                  <
>     PRES   - MEAN SEA LEVEL PRESSURE IN INCHES OF HG     <
>     WCI    - WIND CHILL INDEX                            <
>     VSB    - VISIBILITY IN MILES                         <
>     HX     - HEAT INDEX                                  <
>     TC     - TEMPERATURE IN CELSIUS                      <
>     VRB    - VARIABLE WIND DIRECTION                     <
>                                                          <
>>>>>>>>>>>>>>>>>>>>>>>>>>>> KEY <<<<<<<<<<<<<<<<<<<<<<<<<<<




USA.gov is the U.S. government's official web portal to all federal, state and local government web resources and services.